Location: Lawrence Hall of Science
(37.8785°N, 122.2415°W)
Time: 14:30:53
(UTC-07:00)

ARGOS - Visible Passes

Search period start: 24 May 2016 00:00
Search period end: 03 June 2016 00:00
Orbit: 821 x 834 km, 98.7° (Epoch: 23 May)

Date Brightness Start Highest point End Pass type
(mag) Time Alt. Az. Time Alt. Az. Time Alt. Az.
24 May 4.5 21:29:43 14° ESE 21:32:50 23° ENE 21:37:02 10° NNE visible
24 May 4.0 23:11:14 35° SW 23:12:45 43° W 23:17:55 10° NNW visible
25 May 5.0 21:11:18 10° E 21:14:31 16° ENE 21:17:45 10° NNE visible
25 May 3.4 22:52:25 42° SSW 22:54:10 65° WSW 22:59:35 10° NNW visible
26 May 5.2 20:54:57 10° ENE 20:56:16 11° ENE 20:57:35 10° NE visible
26 May 3.1 22:33:35 40° SSE 22:35:38 86° ENE 22:41:06 10° NNW visible
27 May 5.6 00:15:50 10° W 00:16:29 10° W 00:17:09 10° W visible
27 May 3.3 22:14:46 32° SE 22:17:09 58° ENE 22:22:29 10° N visible
27 May 5.2 23:56:17 15° WSW 23:57:44 16° W 00:01:04 10° NW visible
28 May 3.8 21:55:58 23° ESE 21:58:43 39° ENE 22:03:44 10° N visible
28 May 4.8 23:37:29 22° WSW 23:39:01 24° W 23:43:25 10° NW visible
29 May 4.4 21:37:09 16° ESE 21:40:20 27° ENE 21:44:50 10° N visible
29 May 4.2 23:18:40 29° SW 23:20:22 36° W 23:25:22 10° NNW visible
30 May 4.8 21:18:20 10° ESE 21:22:00 19° ENE 21:25:42 10° NNE visible
30 May 3.6 22:59:51 36° SSW 23:01:46 54° W 23:07:06 10° NNW visible
31 May 5.2 21:01:23 10° E 21:03:44 13° ENE 21:06:05 10° NE visible
31 May 3.1 22:41:02 38° S 22:43:13 81° WSW 22:48:41 10° NNW visible
01 Jun 3.2 22:22:13 33° SSE 22:24:43 69° ENE 22:30:07 10° N visible
02 Jun 5.4 00:03:44 12° WSW 00:05:24 14° W 00:08:02 10° WNW visible
02 Jun 3.6 22:03:25 25° SE 22:06:15 46° ENE 22:11:25 10° N visible
02 Jun 5.0 23:44:56 18° WSW 23:46:40 21° W 23:50:41 10° NW visible
